Snowfall_Accumulation
0.3 0.2 0.2 0.1 0.2 0.2 0.2 0.3 0.7 0.9 0.6 0.2 0.1 0.1 0.0 0.1 0.0 0.2 0.2 0.0 0.0 0.0 0.0 0.0 0.0 0.0 0.0 0.0 0.0 0.0 0.0 0.0 0.0 0.0 0.0 0.0 0.0 0.0
0.3 0.3 0.2 0.1 0.2 0.3 0.3 0.3 0.4 0.8 0.7 0.2 0.2 0.1 0.1 0.1 0.0 0.2 0.2 0.2 0.1 0.1 0.1 0.0 0.0 0.0 0.1 0.1 0.0 0.0 0.0 0.0 0.0 0.0 0.0 0.0 0.0 0.0
0.4 0.5 0.3 0.3 0.2 0.3 0.4 0.3 0.5 0.6 0.9 0.2 0.1 0.1 0.2 0.2 0.2 0.2 0.1 0.2 0.0 0.2 0.2 0.2 0.2 0.2 0.1 0.2 0.2 0.1 0.1 0.0 0.0 0.0 0.0 0.0 0.0 0.0
0.6 0.6 0.5 0.4 0.4 0.4 0.5 0.6 0.5 0.5 1.0 1.1 0.4 0.3 0.3 0.2 0.1 0.2 0.2 0.1 0.2 0.1 0.2 0.2 0.2 0.3 0.3 0.3 0.3 0.2 0.1 0.1 0.1 0.0 0.0 0.0 0.0 0.0
0.9 0.9 0.7 0.6 0.8 0.7 0.8 1.0 1.0 0.8 1.3 1.8 1.1 0.6 0.4 0.3 0.3 0.4 0.2 0.1 0.1 0.1 0.1 0.1 0.1 0.3 0.3 0.4 0.5 0.3 0.3 0.3 0.2 0.1 0.1 0.0 0.0 0.0
1.7 1.8 1.9 1.7 1.8 1.5 1.4 1.5 1.5 1.6 1.5 1.9 2.1 1.7 1.0 0.6 0.6 1.1 0.7 0.6 0.3 0.1 0.1 0.1 0.2 0.3 0.3 0.2 0.2 0.3 0.3 0.4 0.4 0.4 0.4 0.3 0.2 0.1
2.1 2.2 2.1 1.7 1.3 1.4 1.6 2.1 1.9 2.3 2.8 3.3 2.9 2.3 1.5 1.2 1.0 0.9 1.5 1.1 0.5 0.1 0.2 0.1 0.1 0.1 0.1 0.0 0.1 0.0 0.1 0.4 0.6 0.6 0.4 0.4 0.4 0.3
2.2 2.1 1.9 1.9 1.4 1.4 1.5 1.8 2.5 3.7 4.4 4.5 3.8 2.8 1.7 1.1 1.1 1.5 3.0 3.4 3.4 0.4 0.4 0.3 0.2 0.2 0.1 0.1 0.1 0.2 0.5 0.7 0.8 0.7 0.7 0.6 0.5 0.5
2.1 2.0 1.6 1.4 1.6 1.3 1.3 1.8 2.5 2.7 3.4 3.7 3.3 2.4 2.2 1.8 2.7 4.0 4.1 4.5 3.6 1.3 0.7 1.0 0.3 0.4 0.2 0.2 0.2 0.2 0.4 0.5 0.7 0.7 0.7 0.6 0.6 0.5
1.9 1.7 1.9 1.6 1.4 1.9 2.6 3.2 2.2 1.7 1.6 1.8 1.7 2.0 1.9 2.1 3.1 4.4 4.1 3.9 1.8 1.0 0.6 3.1 1.2 0.8 0.3 0.3 0.2 0.4 0.5 0.6 0.9 0.9 0.9 0.9 0.8 0.7
1.7 1.3 1.8 1.4 1.5 3.0 4.2 3.8 2.3 1.4 1.0 1.5 1.9 1.9 1.6 1.8 1.9 3.7 5.8 6.6 5.2 2.2 1.3 2.8 2.0 1.5 0.7 0.3 0.2 0.5 0.8 0.8 1.0 1.0 1.1 0.9 1.0 1.1
1.3 1.3 1.4 1.6 2.3 3.9 4.2 3.8 2.8 2.2 2.4 1.9 1.5 1.0 1.1 1.2 1.3 3.7 8.4 12.1 9.5 6.1 1.8 3.2 3.6 3.9 4.4 1.0 0.4 0.5 0.6 0.7 0.9 1.0 1.1 1.1 1.1 1.4
2.1 1.6 1.3 2.1 3.1 3.5 3.2 2.7 3.0 3.4 2.9 2.1 1.8 1.3 1.4 1.4 1.6 2.3 4.6 11.3 14.1 9.5 3.3 7.3 8.6 5.4 7.7 3.9 1.0 0.8 1.3 2.0 2.2 1.9 1.3 1.2 1.3 1.8
2.7 2.1 2.4 3.1 3.0 2.2 1.8 2.0 2.7 2.5 1.9 2.3 2.5 2.5 2.5 2.4 2.1 2.3 2.9 4.7 7.7 8.8 5.7 9.4 14.3 10.7 12.0 10.3 6.4 4.6 2.9 3.8 5.3 6.0 3.4 2.0 1.4 1.1
2.5 2.9 3.3 2.7 2.0 1.7 1.5 1.7 1.9 2.2 2.9 3.9 3.6 3.3 2.7 2.8 2.6 2.8 2.8 3.1 4.0 4.5 5.0 6.6 10.7 11.5 13.7 13.8 10.7 7.8 7.7 7.1 7.5 8.5 5.9 3.8 2.7 1.5
2.8 2.7 2.0 1.7 1.7 1.6 1.7 1.5 1.7 2.5 3.9 5.3 4.9 3.5 3.2 3.3 3.6 3.6 4.9 5.3 6.2 5.3 4.8 5.5 7.4 10.8 12.7 10.5 11.3 10.5 10.3 13.1 10.4 7.4 4.8 3.7 2.4 2.0
3.5 2.4 1.7 1.6 1.8 1.8 2.0 1.7 1.8 2.2 3.1 4.0 4.9 5.1 4.5 4.3 4.3 4.8 6.9 7.8 8.8 7.4 6.5 5.2 5.1 6.0 8.0 9.1 10.2 9.4 10.7 12.3 9.5 6.3 5.1 5.3 2.8 1.9
3.3 3.3 2.9 2.5 2.6 2.5 2.6 2.6 2.4 2.8 4.0 5.4 5.9 6.2 6.5 6.4 6.2 5.9 7.8 9.8 9.6 8.4 7.6 6.4 6.2 6.4 6.1 6.1 7.8 10.4 11.1 11.9 8.2 6.3 5.8 7.5 6.6 3.1
4.0 4.0 3.6 3.2 3.0 3.0 3.1 3.6 3.7 3.5 4.6 6.5 7.7 7.7 8.2 7.5 7.8 8.1 8.9 9.6 9.2 8.1 6.8 6.3 7.7 11.3 13.1 9.0 6.0 8.1 12.2 12.0 9.4 7.3 5.7 7.7 9.4 6.0
4.3 4.4 4.2 3.8 3.7 4.1 4.4 4.8 4.7 4.4 5.2 6.6 7.6 8.2 9.2 9.8 9.4 9.4 9.6 10.1 9.7 7.9 6.0 4.5 6.0 10.9 16.8 15.3 11.7 9.6 7.6 10.8 12.3 12.2 8.0 5.2 5.2 2.8
4.6 4.7 4.7 4.6 5.1 5.6 6.1 6.1 6.6 6.9 7.4 8.7 8.8 9.2 10.0 11.5 11.0 9.8 9.4 8.8 8.5 8.1 7.1 5.1 4.5 6.0 9.8 12.1 11.5 9.2 9.1 7.0 7.8 13.3 13.9 12.6 10.5 8.3
4.8 5.1 5.1 5.1 5.9 6.6 6.9 7.2 7.8 7.6 8.3 9.0 9.2 9.7 10.6 11.9 11.8 10.3 9.2 9.0 8.1 7.7 7.3 5.6 4.5 5.3 7.8 11.5 10.2 7.5 7.4 7.2 6.1 5.2 6.9 10.8 18.4 20.3
5.5 5.5 5.4 5.6 6.3 7.0 7.6 7.9 8.7 8.9 9.0 10.4 10.5 10.3 10.5 10.6 9.4 9.3 9.2 9.0 9.3 8.7 7.9 7.5 6.4 6.4 7.1 8.1 8.9 8.1 7.0 6.5 6.1 6.5 7.9 5.6 5.4 6.3